DW7898 Weather Reports


time (UTC)temp
C
wind
direction
speed
KPH
gust
KPH
rain 1hr
cm
rain 24hr
cm
rain mn
cm
humidity
%
barometer
mb
20260831134348 28 97 3.2 20.9 0.00 0.00 0.00 59 1020.5
20260831133346 28 156 11.3 24.1 0.00 0.00 0.00 59 1020.6
20260831132340 28 126 9.7 20.9 0.00 0.00 0.00 59 1020.5
20260831131349 28 135 8.0 22.5 0.00 0.00 0.00 60 1020.5
20260831130347 28 113 6.4 22.5 0.00 0.00 0.00 59 1020.5
20260831125404 28 165 9.7 22.5 0.00 0.00 0.00 60 1020.6
20260831124340 28 129 9.7 25.7 0.00 0.00 0.00 58 1020.7
20260831123400 28 134 12.9 24.1 0.00 0.00 0.00 57 1020.8
20260831122355 28 130 11.3 24.1 0.00 0.00 0.00 56 1020.7
20260831121353 28 190 12.9 24.1 0.00 0.00 0.00 55 1020.7
20260831120341 29 92 14.5 22.5 0.00 0.00 0.00 53 1020.8
20260831115355 29 71 8.0 22.5 0.00 0.00 0.00 53 1020.8
20260831114348 29 142 12.9 22.5 0.00 0.00 0.00 52 1020.8
20260831113349 29 168 9.7 22.5 0.00 0.00 0.00 51 1020.9
20260831112400 29 125 8.0 19.3 0.00 0.00 0.00 52 1020.9
20260831111341 29 121 6.4 22.5 0.00 0.00 0.00 51 1020.8
20260831110344 29 110 6.4 20.9 0.00 0.00 0.00 50 1021.0
20260831105353 30 118 8.0 17.7 0.00 0.00 0.00 48 1020.9
20260831104351 29 129 8.0 12.9 0.00 0.00 0.00 49 1020.9
20260831103342 29 201 8.0 12.9 0.00 0.00 0.00 50 1021.0
20260831102353 28 245 3.2 11.3 0.00 0.00 0.00 51 1021.1
20260831101348 28 333 3.2 9.7 0.00 0.00 0.00 52 1021.0
20260831100347 28 214 4.8 8.0 0.00 0.00 0.00 54 1021.1
20260831095339 28 262 9.7 14.5 0.00 0.00 0.00 54 1021.2
20260831094355 27 202 3.2 9.7 0.00 0.00 0.00 55 1021.2
20260831093351 27 226 3.2 9.7 0.00 0.00 0.00 56 1021.2
20260831092344 27 327 6.4 9.7 0.00 0.00 0.00 57 1021.3
20260831091349 27 282 1.6 8.0 0.00 0.00 0.00 58 1021.2
20260831090351 27 24 3.2 6.4 0.00 0.00 0.00 57 1021.4
20260831085349 26 32 0.0 6.4 0.00 0.00 0.00 56 1021.2
20260831084344 26 58 3.2 6.4 0.00 0.00 0.00 52 1021.1
20260831083341 26 48 1.6 6.4 0.00 0.00 0.00 50 1021.1
20260831082354 25 0 1.6 6.4 0.00 0.00 0.00 50 1021.0
20260831081337 24 0 1.6 4.8 0.00 0.00 0.00 51 1021.0
20260831080340 23 0 3.2 6.4 0.00 0.00 0.00 52 1021.0
20260831075359 23 359 1.6 6.4 0.00 0.00 0.00 53 1021.0
20260831074342 23 359 3.2 6.4 0.00 0.00 0.00 54 1020.9
20260831073346 23 359 4.8 6.4 0.00 0.00 0.00 55 1020.7
20260831072345 22 0 1.6 6.4 0.00 0.00 0.00 57 1020.7
20260831071352 22 247 3.2 6.4 0.00 0.00 0.00 59 1020.7
20260831070354 21 235 3.2 4.8 0.00 0.00 0.00 61 1020.7
20260831065352 21 234 0.0 1.6 0.00 0.00 0.00 63 1020.5
20260831064358 21 234 0.0 1.6 0.00 0.00 0.00 63 1020.5
20260831063338 21 234 0.0 3.2 0.00 0.00 0.00 63 1020.4
20260831062354 21 234 0.0 3.2 0.00 0.00 0.00 64 1020.4
20260831061356 20 234 1.6 3.2 0.00 0.00 0.00 65 1020.1
20260831060338 20 234 1.6 4.8 0.00 0.00 0.00 65 1019.8
20260831055356 20 234 0.0 3.2 0.00 0.00 0.00 64 1019.8
20260831054337 19 234 0.0 3.2 0.00 0.00 0.00 65 1019.8
20260831053338 19 234 1.6 4.8 0.00 0.00 0.00 64 1019.6
20260831052354 19 233 1.6 3.2 0.00 0.00 0.00 63 1019.4
20260831051339 19 233 0.0 4.8 0.00 0.00 0.00 64 1019.4
20260831050342 20 233 3.2 4.8 0.00 0.00 0.00 64 1019.2
20260831045340 20 233 0.0 0.0 0.00 0.00 0.00 65 1019.3
20260831044348 20 233 0.0 1.6 0.00 0.00 0.00 65 1019.3
20260831043336 20 233 1.6 3.2 0.00 0.00 0.00 64 1019.3
20260831042352 20 233 1.6 3.2 0.00 0.00 0.00 62 1019.2
20260831040338 20 235 1.6 4.8 0.00 0.00 0.00 60 1019.2
20260831035358 20 233 1.6 4.8 0.00 0.00 0.00 59 1019.3
20260831034356 20 232 1.6 4.8 0.00 0.00 0.00 61 1019.2
20260831033336 20 232 0.0 6.4 0.00 0.00 0.00 58 1019.3
20260831032337 20 232 3.2 6.4 0.00 0.00 0.00 59 1019.2
20260831031356 20 232 1.6 6.4 0.00 0.00 0.00 59 1019.3
20260831030354 20 232 1.6 4.8 0.00 0.00 0.00 59 1019.2
20260831025352 20 231 3.2 4.8 0.00 0.00 0.00 57 1019.2
20260831024352 20 231 1.6 4.8 0.00 0.00 0.00 57 1019.2
20260831023351 21 231 1.6 4.8 0.00 0.00 0.00 57 1019.1
20260831022345 21 230 3.2 6.4 0.00 0.00 0.00 56 1019.1
20260831021349 21 230 1.6 4.8 0.00 0.00 0.00 57 1019.1
20260831020356 21 230 0.0 0.0 0.00 0.00 0.00 58 1019.0
20260831015353 21 230 0.0 0.0 0.00 0.00 0.00 59 1019.0
20260831014340 21 230 0.0 0.0 0.00 0.00 0.00 59 1018.9
20260831013341 21 230 0.0 0.0 0.00 0.00 0.00 59 1019.0
20260831012357 22 230 0.0 0.0 0.00 0.00 0.00 58 1019.0
20260831011338 22 230 0.0 0.0 0.00 0.00 0.00 58 1018.9
20260831010341 22 230 0.0 1.6 0.00 0.00 0.00 57 1018.9
20260831005342 22 230 0.0 1.6 0.00 0.00 0.00 56 1018.9
20260831004343 22 230 0.0 3.2 0.00 0.00 0.00 55 1018.9
20260831003342 22 230 1.6 6.4 0.00 0.00 0.00 55 1018.8
20260831002353 22 230 1.6 6.4 0.00 0.00 0.00 56 1018.8
20260831001337 22 230 1.6 4.8 0.00 0.00 0.00 56 1018.6
20260831000340 22 230 0.0 0.0 0.00 0.00 0.00 56 1018.7
20260830235359 22 229 0.0 0.0 0.00 0.00 0.00 55 1018.8
20260830234356 23 229 0.0 1.6 0.00 0.00 0.00 55 1018.7
20260830233356 23 229 0.0 1.6 0.00 0.00 0.00 55 1018.8
20260830232348 23 229 0.0 1.6 0.00 0.00 0.00 54 1018.8
20260830231351 23 229 1.6 3.2 0.00 0.00 0.00 54 1018.8
20260830230349 23 229 3.2 4.8 0.00 0.00 0.00 53 1018.9
20260830225344 23 229 1.6 3.2 0.00 0.00 0.00 52 1018.8
20260830224348 23 229 1.6 3.2 0.00 0.00 0.00 51 1018.8
20260830223348 23 229 0.0 4.8 0.00 0.00 0.00 50 1018.8
20260830222345 23 229 1.6 4.8 0.00 0.00 0.00 50 1018.8
20260830221343 23 229 1.6 4.8 0.00 0.00 0.00 50 1018.7
20260830220344 24 229 1.6 3.2 0.00 0.00 0.00 49 1018.7
20260830215339 24 229 0.0 3.2 0.00 0.00 0.00 49 1018.7
20260830214338 24 229 1.6 4.8 0.00 0.00 0.00 49 1018.6
20260830213337 25 231 0.0 1.6 0.00 0.00 0.00 50 1018.6
20260830212354 25 231 0.0 3.2 0.00 0.00 0.00 49 1018.5
20260830211338 25 231 0.0 3.2 0.00 0.00 0.00 50 1018.4
20260830210339 25 231 3.2 3.2 0.00 0.00 0.00 51 1018.6
20260830205358 25 231 3.2 4.8 0.00 0.00 0.00 50 1018.5
20260830204356 25 231 1.6 1.6 0.00 0.00 0.00 48 1018.4
20260830203340 26 231 0.0 6.4 0.00 0.00 0.00 50 1018.4
20260830202336 26 231 3.2 8.0 0.00 0.00 0.00 53 1018.3
20260830201336 26 209 3.2 4.8 0.00 0.00 0.00 51 1018.4
20260830200342 26 209 3.2 6.4 0.00 0.00 0.00 50 1018.3
20260830195342 27 208 4.8 6.4 0.00 0.00 0.00 48 1018.1
20260830194345 27 206 4.8 6.4 0.00 0.00 0.00 45 1018.2
20260830193348 27 205 3.2 6.4 0.00 0.00 0.00 41 1018.1
20260830192339 27 205 1.6 4.8 0.00 0.00 0.00 39 1017.9
20260830191339 27 205 0.0 4.8 0.00 0.00 0.00 38 1017.8
20260830190339 28 204 3.2 4.8 0.00 0.00 0.00 38 1017.6
20260830185340 28 204 3.2 6.4 0.00 0.00 0.00 37 1017.5
20260830184339 28 223 3.2 11.3 0.00 0.00 0.00 37 1017.4
20260830183341 28 221 3.2 8.0 0.00 0.00 0.00 36 1017.4
20260830182354 28 218 4.8 9.7 0.00 0.00 0.00 35 1017.3
20260830181353 29 242 3.2 16.1 0.00 0.00 0.00 35 1017.4
20260830180353 29 213 8.0 14.5 0.00 0.00 0.00 33 1017.3
20260830175343 30 212 3.2 12.9 0.00 0.00 0.00 33 1017.3
20260830174356 30 248 9.7 16.1 0.00 0.00 0.00 34 1017.2
20260830173354 30 209 4.8 14.5 0.00 0.00 0.00 34 1017.3
20260830172348 31 255 3.2 9.7 0.00 0.00 0.00 33 1017.2
20260830171347 30 159 1.6 16.1 0.00 0.00 0.00 32 1017.3
20260830170344 31 52 8.0 16.1 0.00 0.00 0.00 32 1017.2
20260830165400 31 257 3.2 12.9 0.00 0.00 0.00 33 1017.2
20260830164357 31 203 4.8 16.1 0.00 0.00 0.00 32 1017.1
20260830163356 30 218 11.3 27.4 0.00 0.00 0.00 33 1017.1
20260830162351 30 221 16.1 25.7 0.00 0.00 0.00 34 1017.1
20260830161346 31 195 11.3 20.9 0.00 0.00 0.00 35 1017.1
20260830160344 31 216 14.5 24.1 0.00 0.00 0.00 33 1017.1
20260830155340 31 228 8.0 27.4 0.00 0.00 0.00 36 1017.0
20260830154400 31 223 8.0 16.1 0.00 0.00 0.00 34 1017.2
20260830153340 31 199 6.4 19.3 0.00 0.00 0.00 35 1017.1
20260830152354 31 24 4.8 17.7 0.00 0.00 0.00 35 1017.3
20260830151352 31 160 4.8 19.3 0.00 0.00 0.00 35 1017.3
20260830150348 31 220 12.9 22.5 0.00 0.00 0.00 34 1017.3
20260830145341 31 210 12.9 22.5 0.00 0.00 0.00 35 1017.4
20260830144345 31 209 14.5 30.6 0.00 0.00 0.00 35 1017.4
20260830143346 31 168 4.8 14.5 0.00 0.00 0.00 32 1017.4
20260830142340 31 53 8.0 20.9 0.00 0.00 0.00 35 1017.5
20260830141341 31 200 8.0 22.5 0.00 0.00 0.00 38 1017.6
20260830140339 31 203 12.9 20.9 0.00 0.00 0.00 37 1017.7
20260830135355 31 214 6.4 22.5 0.00 0.00 0.00 32 1017.8